Regional Weather Roundup
Issued by NWS

Home | Current Version | Previous Version | Graphics & Text | Print | Product List | Glossary On
Versions: 1 2 3 4 5 6 7 8 9 10 11 12 13 14 15 16 17 18 19 20 21 22 23 24 25 26 27 28 29 30 31 32 33 34 35 36 37 38 39 40 41 42 43 44 45 46 47 48 49 50
000
ASUS43 KTOP 310810
RWRKS

STATE WEATHER ROUNDUP
NATIONAL WEATHER SERVICE DODGE CITY KS
 FOR NATIONAL WEATHER SERVICE GOODLAND KS
300 AM CDT FRI JUL 31 2015

NOTE:  "FAIR" INDICATES FEW OR NO CLOUDS BELOW 12,000 FEET WITH NO
SIGNIFICANT WEATHER AND/OR OBSTRUCTIONS TO VISIBILITY.

KSZ001>006-013>018-027>032-041>047-310900-
...NORTHWEST KANSAS...

CITY           SKY/WX    TMP DP  RH WIND       PRES   REMARKS
GOODLAND       CLEAR     61  60  97 CALM      30.25F
HAYS           CLEAR     70  61  73 S5        30.20F
HILL CITY      CLEAR     71  68  90 S5        30.20S
RUSSELL        PTCLDY    69  68  96 S6        30.18F
$$

KSZ061>065-074>080-084>089-310900-
...SOUTHWEST KANSAS...

CITY           SKY/WX    TMP DP  RH WIND       PRES   REMARKS
DODGE CITY     MOCLDY    68  66  93 S3        30.22F
ELKHART          N/A     70  64  81 SE7         N/A
GARDEN CITY    PTCLDY    70  67  90 SE7       30.23S
GREAT BEND     PTCLDY    70  64  83 CALM      30.20S
LIBERAL        CLOUDY    73  66  78 SE5       30.22F
PRATT          CLEAR     68  68 100 CALM      30.21S
$$

KSZ066>073-081>083-090>101-310900-
...SOUTHEAST KANSAS...

CITY           SKY/WX    TMP DP  RH WIND       PRES   REMARKS
CHANUTE        CLOUDY    67  65  93 CALM      30.15S
COFFEYVILLE    MOCLDY    74  71  91 N3        30.13S
HUTCHINSON     PTCLDY    68  66  93 CALM      30.18S FOG
MEDICINE LODGE   N/A     71  70  96 N3        30.16F
NEWTON         CLEAR     72  61  68 S5        30.20S
PARSONS        PTCLDY    69  68  96 CALM      30.15S
WICHITA INTL   MOCLDY    74  66  76 E3        30.16S
WICHITA JABRA  PTCLDY    70  67  90 E3        30.17S
WICHITA MCCONL MOCLDY    74  65  72 NE3       30.17S
WINFIELD       CLEAR     71  68  90 NE3       30.16F
$$

KSZ007>012-019>026-033>040-048>060-102>105-310900-
...NORTHEAST KANSAS...

CITY           SKY/WX    TMP DP  RH WIND       PRES   REMARKS
CONCORDIA      PTCLDY    71  66  84 SW9       30.18R
EMPORIA        CLEAR     67  65  93 CALM      30.18R
LAWRENCE       PTCLDY    62  60  93 CALM      30.17S
MANHATTAN      MOCLDY    65  64  97 CALM      30.17S
OLATHE IND     CLEAR     65  61  87 CALM      30.18S
OLATHE EXE     CLEAR     66  62  87 CALM      30.17S
SALINA         CLEAR     71  66  84 CALM      30.18R
TOPEKA BILLARD PTCLDY    66  63  90 CALM      30.17S
TOPEKA FORBES  PTCLDY    65  61  87 CALM      30.17S
$$



USA.gov is the U.S. government's official web portal to all federal, state and local government web resources and services.